FW2068 Weather Reports


Display with metric or nautical units.
time (UTC)temp
F
wind
direction
speed
MPH
gust
MPH
rain 1hr
in
rain 24hr
in
rain mn
in
humidity
%
barometer
mb
20260508220518 74 153 7.0 10.0 0.00 0.00 0.00 71 1008.9
20260508220014 74 224 4.0 7.0 0.00 0.00 0.00 72 1008.9
20260508215511 74 243 5.0 6.0 0.00 0.00 0.00 72 1008.9
20260508215008 73 287 7.0 9.0 0.00 0.00 0.00 73 1008.6
20260508214506 74 287 6.0 6.0 0.00 0.00 0.00 74 1008.6
20260508214001 73 290 6.0 12.0 0.00 0.00 0.00 76 1008.5
20260508213459 74 317 3.0 11.0 0.00 0.00 0.00 76 1008.0
20260508212954 71 140 6.0 18.0 0.00 0.00 0.00 79 1006.5
20260508212451 72 113 6.0 18.0 0.00 0.00 0.00 78 1007.8
20260508211947 72 151 6.0 10.0 0.00 0.00 0.00 78 1009.3
20260508211443 72 194 5.0 9.0 0.00 0.00 0.00 77 1010.3
20260508210940 72 201 4.0 10.0 0.00 0.00 0.00 77 1009.9
20260508210437 74 156 9.0 11.0 0.00 0.00 0.00 75 1009.8
20260508205933 74 248 4.0 5.0 0.00 0.00 0.00 70 1010.5
20260508205430 75 134 1.0 5.0 0.00 0.00 0.00 69 1010.5
20260508204927 75 243 3.0 6.0 0.00 0.00 0.00 68 1010.4
20260508204424 75 138 7.0 8.0 0.00 0.00 0.00 68 1010.8
20260508203919 75 228 4.0 9.0 0.00 0.00 0.00 67 1010.5
20260508203416 76 141 8.0 10.0 0.00 0.00 0.00 66 1010.4
20260508202912 77 210 3.0 6.0 0.00 0.00 0.00 65 1010.3
20260508202409 77 203 2.0 9.0 0.00 0.00 0.00 63 1010.4
20260508201906 77 170 3.0 7.0 0.00 0.00 0.00 64 1010.3
20260508201403 77 142 5.0 9.0 0.00 0.00 0.00 64 1010.4
20260508200859 77 166 5.0 12.0 0.00 0.00 0.00 65 1010.3
20260508200356 78 195 5.0 13.0 0.00 0.00 0.00 64 1010.3
20260508195852 77 130 5.0 7.0 0.00 0.00 0.00 65 1010.3
20260508195349 77 160 6.0 9.0 0.00 0.00 0.00 64 1010.4
20260508194845 76 159 5.0 13.0 0.00 0.00 0.00 64 1010.5
20260508194342 77 164 6.0 11.0 0.00 0.00 0.00 63 1010.5
20260508193839 77 137 4.0 9.0 0.00 0.00 0.00 63 1010.4
20260508193336 76 144 8.0 10.0 0.00 0.00 0.00 63 1010.8
20260508192832 76 158 6.0 12.0 0.00 0.00 0.00 64 1010.8
20260508192329 76 152 7.0 13.0 0.00 0.00 0.00 65 1010.7
20260508191826 76 168 9.0 15.0 0.00 0.00 0.00 63 1010.9
20260508191324 76 159 9.0 13.0 0.00 0.00 0.00 65 1010.7
20260508190821 77 141 6.0 12.0 0.00 0.00 0.00 62 1011.0
20260508190317 78 140 10.0 11.0 0.00 0.00 0.00 62 1011.0
20260508185813 77 162 7.0 12.0 0.00 0.00 0.00 63 1011.1
20260508185311 77 153 4.0 13.0 0.00 0.00 0.00 63 1011.0
20260508184808 77 158 7.0 15.0 0.00 0.00 0.00 63 1010.9
20260508184305 77 139 5.0 10.0 0.00 0.00 0.00 64 1010.9
20260508183803 77 154 4.0 15.0 0.00 0.00 0.00 64 1011.1
20260508183259 78 66 3.0 13.0 0.00 0.00 0.00 61 1011.3
20260508182755 78 101 4.0 13.0 0.00 0.00 0.00 61 1011.4
20260508182252 77 119 4.0 13.0 0.00 0.00 0.00 63 1011.3
20260508181747 77 136 7.0 10.0 0.00 0.00 0.00 64 1011.5
20260508181244 77 145 12.0 15.0 0.00 0.00 0.00 62 1011.6
20260508180741 77 132 4.0 6.0 0.00 0.00 0.00 62 1011.6
20260508180238 76 122 5.0 11.0 0.00 0.00 0.00 63 1011.7
20260508175734 76 167 6.0 6.0 0.00 0.00 0.00 63 1011.9
20260508175231 76 97 3.0 10.0 0.00 0.00 0.00 61 1012.0
20260508174729 76 89 4.0 6.0 0.00 0.00 0.00 62 1012.0
20260508174226 77 97 4.0 7.0 0.00 0.00 0.00 63 1012.0
20260508173722 75 177 6.0 13.0 0.00 0.00 0.00 66 1012.1
20260508173218 75 162 4.0 6.0 0.00 0.00 0.00 65 1012.4
20260508172715 75 132 5.0 11.0 0.00 0.00 0.00 64 1012.1
20260508172212 75 146 7.0 11.0 0.00 0.00 0.00 66 1012.3
20260508171708 75 133 5.0 6.0 0.00 0.00 0.00 63 1012.4
20260508171205 74 142 4.0 9.0 0.00 0.00 0.00 64 1012.5
20260508170702 74 122 5.0 12.0 0.00 0.00 0.00 64 1012.7
20260508170200 73 160 6.0 9.0 0.00 0.00 0.00 65 1012.9
20260508165657 73 161 5.0 11.0 0.00 0.00 0.00 65 1013.0
20260508165154 73 160 8.0 11.0 0.00 0.00 0.00 65 1013.1
20260508164650 72 133 8.0 12.0 0.00 0.00 0.00 67 1013.2
20260508164147 73 139 6.0 10.0 0.00 0.00 0.00 66 1013.4
20260508163645 72 140 6.0 12.0 0.00 0.00 0.00 67 1013.4
20260508163142 72 152 6.0 10.0 0.00 0.00 0.00 66 1013.7
20260508162637 71 118 9.0 11.0 0.00 0.00 0.00 68 1013.7
20260508162135 71 93 7.0 9.0 0.00 0.00 0.00 68 1013.6
20260508161632 72 148 10.0 13.0 0.00 0.00 0.00 67 1013.6
20260508161129 71 148 8.0 9.0 0.00 0.00 0.00 67 1013.9
20260508160627 71 121 4.0 10.0 0.00 0.00 0.00 67 1013.7
20260508160125 71 133 5.0 10.0 0.00 0.00 0.00 67 1013.7
20260508155621 71 136 7.0 10.0 0.00 0.00 0.00 68 1013.9
20260508155118 70 164 7.0 10.0 0.00 0.00 0.00 68 1013.9
20260508154615 70 136 8.0 9.0 0.00 0.00 0.00 68 1014.2
20260508154112 70 180 6.0 8.0 0.00 0.00 0.00 68 1014.1
20260508153609 70 147 2.0 8.0 0.00 0.00 0.00 69 1014.2
20260508153105 69 181 5.0 10.0 0.00 0.00 0.00 68 1014.2
20260508152602 69 153 8.0 10.0 0.00 0.00 0.00 68 1014.1
20260508152057 69 139 6.0 10.0 0.00 0.00 0.00 68 1014.4
20260508151555 69 137 9.0 11.0 0.00 0.00 0.00 68 1014.2
20260508151052 69 135 7.0 9.0 0.00 0.00 0.00 70 1014.3
20260508150549 69 148 10.0 12.0 0.00 0.00 0.00 69 1014.2
20260508150044 69 142 10.0 15.0 0.00 0.00 0.00 69 1014.4
20260508145541 69 131 6.0 11.0 0.00 0.00 0.00 71 1014.2
20260508145038 69 132 11.0 11.0 0.00 0.00 0.00 68 1014.3
20260508144536 69 123 6.0 11.0 0.00 0.00 0.00 69 1014.1
20260508144033 69 175 7.0 10.0 0.00 0.00 0.00 68 1014.0
20260508143530 70 140 6.0 9.0 0.00 0.00 0.00 68 1014.2
20260508143026 69 143 8.0 11.0 0.00 0.00 0.00 68 1014.2
20260508142524 69 138 5.0 8.0 0.00 0.00 0.00 69 1014.2
20260508142020 69 131 6.0 8.0 0.00 0.00 0.00 71 1014.3
20260508141517 68 129 7.0 11.0 0.00 0.00 0.00 69 1014.6
20260508141015 68 125 9.0 12.0 0.00 0.00 0.00 71 1014.6
20260508140512 68 132 8.0 9.0 0.00 0.00 0.00 70 1014.5
20260508140008 67 138 6.0 15.0 0.00 0.00 0.00 72 1014.5
20260508135504 67 151 6.0 12.0 0.00 0.00 0.00 74 1014.4
20260508135000 66 109 6.0 11.0 0.00 0.00 0.00 76 1014.6
20260508134457 66 124 4.0 10.0 0.00 0.00 0.00 75 1014.5
20260508133953 66 112 6.0 6.0 0.00 0.00 0.00 74 1014.5
20260508133451 66 127 4.0 6.0 0.00 0.00 0.00 75 1014.6
20260508132947 66 129 5.0 5.0 0.00 0.00 0.00 74 1014.5
20260508132446 66 101 3.0 6.0 0.00 0.00 0.00 73 1014.5
20260508131942 66 86 0.0 3.0 0.00 0.00 0.00 74 1014.6
20260508131438 66 70 2.0 3.0 0.00 0.00 0.00 75 1014.8
20260508130934 65 109 2.0 3.0 0.00 0.00 0.00 78 1014.9
20260508130432 64 147 0.0 1.0 0.00 0.00 0.00 80 1014.8
20260508125927 62 127 0.0 2.0 0.00 0.00 0.00 83 1014.7
20260508125423 61 95 3.0 3.0 0.00 0.00 0.00 83 1014.7
20260508124921 61 93 0.0 2.0 0.00 0.00 0.00 83 1014.6
20260508124419 61 103 3.0 3.0 0.00 0.00 0.00 83 1014.4
20260508123917 61 92 2.0 4.0 0.00 0.00 0.00 84 1014.2
20260508123415 61 79 2.0 3.0 0.00 0.00 0.00 85 1014.4
20260508122911 60 89 2.0 3.0 0.00 0.00 0.00 86 1014.4
20260508122408 60 109 2.0 5.0 0.00 0.00 0.00 86 1014.6
20260508121905 60 99 2.0 2.0 0.00 0.00 0.00 86 1014.8
20260508121403 60 99 1.0 3.0 0.00 0.00 0.00 86 1014.8
20260508120901 60 78 2.0 5.0 0.00 0.00 0.00 86 1014.6
20260508120358 60 78 2.0 2.0 0.00 0.00 0.00 86 1014.8
20260508115856 60 122 0.0 2.0 0.00 0.00 0.00 85 1014.8
20260508115353 60 111 2.0 4.0 0.00 0.00 0.00 85 1014.8
20260508114849 60 120 3.0 4.0 0.00 0.00 0.00 85 1014.7
20260508114346 60 108 0.0 3.0 0.00 0.00 0.00 86 1014.8
20260508113843 60 63 2.0 3.0 0.00 0.00 0.00 87 1014.8
20260508113341 60 80 0.0 2.0 0.00 0.00 0.00 87 1015.3
20260508112837 60 79 1.0 3.0 0.00 0.00 0.00 87 1015.3
20260508112335 60 329 2.0 4.0 0.00 0.00 0.00 87 1015.5
20260508111831 60 306 2.0 5.0 0.00 0.00 0.00 87 1015.5
20260508111328 60 14 0.0 2.0 0.00 0.00 0.00 86 1015.2
20260508110826 60 320 1.0 2.0 0.00 0.00 0.00 85 1014.8
20260508110323 60 282 1.0 2.0 0.00 0.00 0.00 86 1014.6
20260508105823 60 103 0.0 4.0 0.00 0.00 0.00 86 1014.4
20260508105320 59 146 5.0 6.0 0.00 0.00 0.00 87 1014.0
20260508104817 59 148 5.0 6.0 0.00 0.00 0.00 88 1013.7
20260508104313 59 124 5.0 6.0 0.00 0.00 0.00 87 1013.9
20260508103811 59 121 3.0 4.0 0.00 0.00 0.00 87 1013.9
20260508103307 59 123 2.0 3.0 0.00 0.00 0.00 87 1013.9
20260508102805 59 136 2.0 3.0 0.00 0.00 0.00 87 1014.0
20260508102306 59 105 2.0 3.0 0.00 0.00 0.00 87 1013.7
20260508101800 59 89 0.0 2.0 0.00 0.00 0.00 87 1013.6
20260508101257 59 103 2.0 3.0 0.00 0.00 0.00 87 1013.9
20260508100755 59 106 2.0 2.0 0.00 0.00 0.00 87 1013.9
20260508100253 59 134 2.0 3.0 0.00 0.00 0.00 88 1014.2
20260508095749 59 132 3.0 4.0 0.00 0.00 0.00 88 1014.3
20260508095246 59 131 4.0 5.0 0.00 0.00 0.00 88 1013.9
20260508094743 59 109 3.0 6.0 0.00 0.00 0.00 88 1013.7
20260508094240 60 122 4.0 5.0 0.00 0.00 0.00 88 1013.6
20260508093737 60 119 2.0 4.0 0.00 0.00 0.00 87 1014.1
20260508093235 60 113 2.0 3.0 0.00 0.00 0.00 87 1014.1
20260508092731 60 118 4.0 5.0 0.00 0.00 0.00 87 1013.7
20260508092230 60 113 2.0 6.0 0.00 0.00 0.00 87 1013.7
20260508091728 60 117 3.0 5.0 0.00 0.00 0.00 87 1013.9
20260508091224 60 112 4.0 4.0 0.00 0.00 0.00 86 1014.1
20260508090722 61 108 2.0 3.0 0.00 0.00 0.00 86 1014.2
20260508090219 61 93 2.0 4.0 0.00 0.00 0.00 86 1014.3
20260508085715 61 75 2.0 4.0 0.00 0.00 0.00 86 1014.7
20260508085213 61 84 2.0 2.0 0.00 0.00 0.00 86 1014.7
20260508084708 60 69 1.0 2.0 0.00 0.00 0.00 87 1014.9
20260508084206 60 66 0.0 0.0 0.00 0.00 0.00 87 1015.0
20260508083704 61 116 0.0 1.0 0.00 0.00 0.00 87 1014.9
20260508083201 61 321 0.0 0.0 0.00 0.00 0.00 87 1015.2
20260508082655 61 269 0.0 1.0 0.00 0.00 0.00 86 1015.4
20260508082153 61 309 0.0 2.0 0.00 0.00 0.00 86 1015.2
20260508081651 61 319 0.0 2.0 0.00 0.00 0.00 85 1015.4
20260508081147 62 325 2.0 2.0 0.00 0.00 0.00 84 1015.3
20260508080644 62 280 1.0 2.0 0.00 0.00 0.00 83 1015.3
20260508080143 62 158 0.0 2.0 0.00 0.00 0.00 83 1014.9
20260508075639 61 175 0.0 2.0 0.00 0.00 0.00 83 1015.1
20260508075136 61 321 0.0 0.0 0.00 0.00 0.00 85 1015.0
20260508074633 61 85 0.0 1.0 0.00 0.00 0.00 85 1014.8
20260508074130 61 113 1.0 1.0 0.00 0.00 0.00 84 1014.8
20260508073627 61 120 2.0 2.0 0.00 0.00 0.00 84 1014.8
20260508073126 61 113 0.0 2.0 0.00 0.00 0.00 84 1014.7
20260508072620 61 55 1.0 2.0 0.00 0.00 0.00 83 1014.8
20260508072118 61 102 1.0 2.0 0.00 0.00 0.00 83 1014.8
20260508071616 61 81 2.0 2.0 0.00 0.00 0.00 84 1014.7
20260508071114 61 87 2.0 2.0 0.00 0.00 0.00 84 1014.6
20260508070611 61 93 1.0 2.0 0.00 0.00 0.00 85 1015.0
20260508070109 61 121 2.0 2.0 0.00 0.00 0.00 85 1015.1
20260508065606 61 109 2.0 2.0 0.00 0.00 0.00 85 1015.2
20260508065104 61 132 2.0 3.0 0.00 0.00 0.00 85 1015.4
20260508064601 61 141 2.0 3.0 0.00 0.00 0.00 85 1015.6
20260508064059 61 141 2.0 3.0 0.00 0.00 0.00 86 1015.6
20260508063556 60 115 2.0 2.0 0.00 0.00 0.00 86 1015.7
20260508063055 61 109 1.0 3.0 0.00 0.00 0.00 85 1015.6
20260508062552 61 118 1.0 3.0 0.00 0.00 0.00 85 1015.5
20260508062048 61 122 2.0 3.0 0.00 0.00 0.00 85 1015.6
20260508061546 61 129 2.0 2.0 0.00 0.00 0.00 85 1015.6
20260508061043 61 138 2.0 2.0 0.00 0.00 0.00 86 1015.6
20260508060539 60 130 2.0 3.0 0.00 0.00 0.00 85 1015.6
20260508060037 61 128 2.0 3.0 0.00 0.00 0.00 84 1015.6
20260508055532 61 66 0.0 2.0 0.00 0.00 0.00 84 1015.6
20260508055030 61 145 1.0 2.0 0.00 0.00 0.00 84 1015.7
20260508054526 62 128 2.0 2.0 0.00 0.00 0.00 83 1015.5
20260508054023 62 40 0.0 1.0 0.00 0.00 0.00 83 1015.4
20260508053520 62 120 2.0 4.0 0.00 0.00 0.00 83 1015.3
20260508053019 62 121 3.0 4.0 0.00 0.00 0.00 83 1015.3
20260508052515 62 134 4.0 6.0 0.00 0.00 0.00 83 1015.7
20260508052012 62 123 3.0 4.0 0.00 0.00 0.00 82 1015.7
20260508051508 62 134 2.0 3.0 0.00 0.00 0.00 82 1015.9
20260508051003 63 116 1.0 4.0 0.00 0.00 0.00 81 1015.8
20260508050500 63 111 4.0 5.0 0.00 0.00 0.00 81 1015.5
20260508045956 63 93 2.0 3.0 0.00 0.00 0.00 81 1015.6
20260508045454 63 115 2.0 3.0 0.00 0.00 0.00 81 1015.8
20260508044951 63 105 2.0 3.0 0.00 0.00 0.00 81 1015.7
20260508044448 63 108 1.0 3.0 0.00 0.00 0.00 81 1015.6
20260508043943 63 105 3.0 4.0 0.00 0.00 0.00 82 1015.6
20260508043441 62 101 3.0 3.0 0.00 0.00 0.00 83 1015.5
20260508042937 62 117 2.0 3.0 0.00 0.00 0.00 82 1015.8
20260508042436 62 119 2.0 3.0 0.00 0.00 0.00 82 1015.7
20260508041932 63 109 1.0 3.0 0.00 0.00 0.00 81 1015.7
20260508041428 63 104 1.0 2.0 0.00 0.00 0.00 80 1015.7
20260508040925 63 113 0.0 1.0 0.00 0.00 0.00 80 1015.4
20260508040423 63 83 2.0 2.0 0.00 0.00 0.00 80 1015.5
20260508035920 63 89 0.0 1.0 0.00 0.00 0.00 80 1015.3
20260508035417 63 122 0.0 2.0 0.00 0.00 0.00 79 1015.2
20260508034914 63 50 0.0 0.0 0.00 0.00 0.00 79 1015.3
20260508034411 63 69 1.0 2.0 0.00 0.00 0.00 78 1015.3
20260508033907 64 77 0.0 2.0 0.00 0.00 0.00 78 1015.2
20260508033406 64 92 2.0 3.0 0.00 0.00 0.00 77 1015.5
20260508032903 64 114 0.0 2.0 0.00 0.00 0.00 76 1015.3
20260508032400 64 82 0.0 2.0 0.00 0.00 0.00 76 1015.4
20260508031857 64 89 0.0 1.0 0.00 0.00 0.00 74 1015.3
20260508031354 64 83 1.0 2.0 0.00 0.00 0.00 74 1015.1
20260508030850 65 92 2.0 2.0 0.00 0.00 0.00 74 1015.2
20260508030347 65 76 0.0 2.0 0.00 0.00 0.00 73 1015.1
20260508025844 65 92 2.0 3.0 0.00 0.00 0.00 73 1015.0
20260508025341 65 76 1.0 2.0 0.00 0.00 0.00 73 1015.3
20260508024838 65 98 2.0 2.0 0.00 0.00 0.00 72 1015.1
20260508024334 65 71 0.0 1.0 0.00 0.00 0.00 72 1015.0
20260508023831 65 118 1.0 2.0 0.00 0.00 0.00 72 1015.3
20260508023328 65 93 1.0 2.0 0.00 0.00 0.00 72 1015.1
20260508022825 65 119 1.0 2.0 0.00 0.00 0.00 72 1015.2
20260508022321 65 79 0.0 2.0 0.00 0.00 0.00 71 1015.1
20260508021818 65 89 0.0 2.0 0.00 0.00 0.00 71 1015.0
20260508021314 65 107 0.0 2.0 0.00 0.00 0.00 70 1015.0
20260508020810 65 113 2.0 2.0 0.00 0.00 0.00 70 1014.8
20260508020308 66 97 1.0 2.0 0.00 0.00 0.00 70 1014.7
20260508015804 66 113 2.0 3.0 0.00 0.00 0.00 69 1014.7
20260508015305 66 102 1.0 3.0 0.00 0.00 0.00 70 1014.9
20260508014759 66 119 1.0 2.0 0.00 0.00 0.00 69 1014.8
20260508014256 66 115 2.0 2.0 0.00 0.00 0.00 70 1014.8
20260508013751 66 77 0.0 3.0 0.00 0.00 0.00 69 1015.0
20260508013248 66 100 3.0 4.0 0.00 0.00 0.00 69 1014.9
20260508012745 66 94 2.0 3.0 0.00 0.00 0.00 69 1014.8
20260508012242 66 131 3.0 3.0 0.00 0.00 0.00 68 1014.9
20260508011740 66 89 0.0 3.0 0.00 0.00 0.00 68 1014.9
20260508011237 66 138 2.0 2.0 0.00 0.00 0.00 67 1014.8
20260508010734 67 117 1.0 1.0 0.00 0.00 0.00 66 1014.7
20260508010232 67 122 1.0 2.0 0.00 0.00 0.00 66 1014.6
20260508005729 67 110 1.0 3.0 0.00 0.00 0.00 66 1014.8
20260508005226 67 107 1.0 3.0 0.00 0.00 0.00 66 1014.9
20260508004721 67 121 4.0 4.0 0.00 0.00 0.00 65 1014.7
20260508004218 67 101 2.0 4.0 0.00 0.00 0.00 67 1014.8
20260508003715 67 131 4.0 5.0 0.00 0.00 0.00 67 1014.9
20260508003212 67 128 2.0 4.0 0.00 0.00 0.00 67 1015.0
20260508002708 67 143 6.0 6.0 0.00 0.00 0.00 66 1015.0
20260508002206 67 161 4.0 6.0 0.00 0.00 0.00 65 1015.1
20260508001701 67 164 3.0 5.0 0.00 0.00 0.00 67 1015.0
20260508001157 67 125 0.0 4.0 0.00 0.00 0.00 65 1014.9
20260508000654 67 146 6.0 6.0 0.00 0.00 0.00 65 1014.9
20260508000151 68 137 3.0 6.0 0.00 0.00 0.00 64 1015.0
20260507235647 68 129 4.0 6.0 0.00 0.00 0.00 64 1015.0
20260507235145 67 106 3.0 6.0 0.00 0.00 0.00 65 1014.8
20260507234642 68 144 6.0 7.0 0.00 0.00 0.00 64 1015.0
20260507234138 68 128 4.0 8.0 0.00 0.00 0.00 64 1014.9
20260507233635 68 139 7.0 9.0 0.00 0.00 0.00 63 1014.9
20260507233134 68 138 6.0 8.0 0.00 0.00 0.00 64 1015.0
20260507232629 68 133 6.0 7.0 0.00 0.00 0.00 63 1015.1
20260507232127 68 124 4.0 7.0 0.00 0.00 0.00 63 1015.2
20260507231623 68 92 3.0 8.0 0.00 0.00 0.00 64 1015.2
20260507231121 68 138 6.0 9.0 0.00 0.00 0.00 64 1015.3
20260507230616 68 125 4.0 7.0 0.00 0.00 0.00 64 1015.1
20260507230114 68 124 7.0 8.0 0.00 0.00 0.00 65 1015.1
20260507225608 68 139 6.0 9.0 0.00 0.00 0.00 63 1015.3
20260507225105 68 115 3.0 8.0 0.00 0.00 0.00 64 1015.2
20260507224601 68 119 6.0 8.0 0.00 0.00 0.00 63 1015.4
20260507224058 69 98 3.0 8.0 0.00 0.00 0.00 62 1015.3
20260507223554 69 134 6.0 7.0 0.00 0.00 0.00 63 1015.2
20260507223051 69 142 5.0 9.0 0.00 0.00 0.00 63 1015.5
20260507222548 69 137 6.0 6.0 0.00 0.00 0.00 63 1015.3
20260507222044 69 136 6.0 7.0 0.00 0.00 0.00 62 1015.2
20260507221541 69 124 6.0 6.0 0.00 0.00 0.00 62 1015.4
20260507221038 69 140 6.0 8.0 0.00 0.00 0.00 62 1015.3